ARIANE 2 DEB, 28565

Orbit data source: Space-Track

ARIANE 2 DEB, 28565 is space debris in HEO originally from a launch on Fri, 27 Jan 1989 UTC launched from the French Guiana (FRGUI). Debris objects in space refer to the collection of defunct objects orbiting the Earth. Examples of debris include non-operational satellites, rocket bodies, and fragments generated from explosions, collisions, or faulty payload assembly.

Loading next visibility...
Identifier
28565, 1989-006AG
Orbit
HEO
Country
Flag of FRFR
Related business
Manufacturer
EADS/LV
Mission
Spacecraft
Bus & Motor
Unknown
Mass
Unknown
Launch date (UTC)
1989-01-27 (37 years ago)
Launch vehicle
Unknown
Launch site
French Guiana (FRGUI)
Object type
Payload
Rocket body
Debris
Shape & HBR
Unknown
Radar Cross Section
Medium (>0.1 m² and <1 m²)

Expand to show TLE details & history
Last TLE update: 2 days ago

TLE from 2 days ago
0 ARIANE 2 DEB
1 28565U 89006AG  25260.39793123  .00002220  00000-0  11990-1 0  9998
2 28565   8.2615  56.4970 7100437 116.9547 330.1975  2.39031825184066
Epoch: 2025-09-17T09:33Z
TLE epoch observation values (Epoch: 2025-09-17T09:33:01.258Z)
Latitude
-0.00008°
Longitude
-83.11447°
Altitude
10,792.311 km
Speed
5.436 km/s
True Right ascension
03h 46m 51s
True Declination
0° 00' 00"
Sunlit
Object was in daylight at epoch
Visualization orbit readout
Latitude
Unknown
Longitude
Unknown
Altitude
Unknown
Speed
Unknown
Apparent Right ascension
Unknown
Apparent Declination
Unknown
Sunlit
N/A
Visualization observer readout
Local Sidereal Time
22:49:11
Azimuth
Unknown
Elevation
Unknown
Doppler factor
Unknown
Orbital elements
Apogee altitude
34,036.057 km
Perigee altitude
474.524 km
Semi-major axis
23,633.428 km
Eccentricity
0.71004
Inclination
8.2615°
RAAN
56.497°
Arg. of periapsis
116.9547°
True anomaly
243.43719°
Mean anomaly
330.1975°
Eccentric anomaly
292.65365°
Mean motion
0.59738 °/min
Orbital period
602.63 mins
BSTAR
0.01199
Loading maneuver chart data...
Computing Atmospheric mass density...
Loading historical data...
Loading historical data...
Loading historical data...
Loading historical data...
Loading historical data...
Loading historical data...
Loading historical data...

Documentation

Showing up to 5 results
|